IBE44D LEMD-LEBL

Flight info

Callsign IBE44D
Flight time 0h 49m
Altitude 30000
Route PINAR N870 PONEN T600 CASPE
Aircraft A320/M-SDE3FGHIRWY/LB1

Departure

Time 2026-05-06 19:41
Airport Adolfo Suárez Madrid–Barajas Airport (LEMD)

Arrival

Time 2026-05-06 20:30
Airport Josep Tarradellas Barcelona-El Prat Airport (LEBL)
Time Latitude Longitude Altitude Speed Heading
2026-05-06 19:18 40.49005 -3.58991 1981 ft 0 kts 269°
2026-05-06 19:32 40.49005 -3.58982 1980 ft 2 kts 269°
2026-05-06 19:32 40.49006 -3.58960 1980 ft 2 kts 269°
2026-05-06 19:32 40.49006 -3.58937 1980 ft 2 kts 269°
2026-05-06 19:33 40.49005 -3.58916 1980 ft 2 kts 317°
2026-05-06 19:33 40.48991 -3.58902 1981 ft 2 kts 343°
2026-05-06 19:33 40.48986 -3.58900 1982 ft 0 kts
2026-05-06 19:35 40.48998 -3.58900 1980 ft 8 kts 358°
2026-05-06 19:35 40.49085 -3.58903 1980 ft 12 kts 359°
2026-05-06 19:35 40.49170 -3.58903 1980 ft 11 kts 359°
2026-05-06 19:35 40.49224 -3.58896 1980 ft 6 kts 38°
2026-05-06 19:36 40.49241 -3.58783 1984 ft 18 kts 90°
2026-05-06 19:36 40.49239 -3.58567 1982 ft 28 kts 91°
2026-05-06 19:36 40.49245 -3.58343 1980 ft 14 kts 86°
2026-05-06 19:36 40.49243 -3.58228 1980 ft 13 kts 89°
2026-05-06 19:37 40.49244 -3.58097 1980 ft 15 kts 89°
2026-05-06 19:37 40.49245 -3.57950 1980 ft 17 kts 90°
2026-05-06 19:37 40.49245 -3.57784 1980 ft 19 kts 90°
2026-05-06 19:37 40.49256 -3.57623 1984 ft 10 kts 53°
2026-05-06 19:38 40.49267 -3.57586 1981 ft 0 kts 67°
2026-05-06 19:38 40.49267 -3.57585 1981 ft 2 kts 67°
2026-05-06 19:38 40.49300 -3.57523 1983 ft 14 kts 52°
2026-05-06 19:39 40.49316 -3.57499 1980 ft 1 kts 45°
2026-05-06 19:39 40.49324 -3.57490 1980 ft 6 kts 41°
2026-05-06 19:39 40.49327 -3.57486 1980 ft 7 kts 41°
2026-05-06 19:40 40.49408 -3.57463 1982 ft 18 kts
2026-05-06 19:40 40.49737 -3.57464 1981 ft 85 kts 360°
2026-05-06 19:40 40.50537 -3.57470 1982 ft 142 kts 359°
2026-05-06 19:40 40.51655 -3.57478 2200 ft 165 kts 360°
2026-05-06 19:41 40.52774 -3.57491 2855 ft 164 kts
2026-05-06 19:41 40.53940 -3.57499 3465 ft 167 kts
2026-05-06 19:41 40.55128 -3.57490 3910 ft 178 kts
2026-05-06 19:41 40.56377 -3.57154 4340 ft 187 kts 15°
2026-05-06 19:42 40.57663 -3.56665 4698 ft 201 kts 18°
2026-05-06 19:42 40.59069 -3.56095 4902 ft 224 kts 18°
2026-05-06 19:42 40.60617 -3.55472 5311 ft 239 kts 18°
2026-05-06 19:42 40.62228 -3.54836 6055 ft 243 kts 17°
2026-05-06 19:43 40.63879 -3.54277 6823 ft 247 kts
2026-05-06 19:43 40.65601 -3.54087 7594 ft 250 kts
2026-05-06 19:43 40.67349 -3.53926 8385 ft 253 kts
2026-05-06 19:43 40.69089 -3.53519 9169 ft 256 kts 20°
2026-05-06 19:44 40.70671 -3.52421 9890 ft 263 kts 38°
2026-05-06 19:44 40.71968 -3.50618 10296 ft 279 kts 57°
2026-05-06 19:44 40.73059 -3.48465 10964 ft 285 kts 57°
2026-05-06 19:44 40.74177 -3.46287 11697 ft 289 kts 57°
2026-05-06 19:45 40.75319 -3.44083 12429 ft 293 kts 56°
2026-05-06 19:45 40.76482 -3.41854 13176 ft 296 kts 56°
2026-05-06 19:45 40.77655 -3.39598 13900 ft 300 kts 56°
2026-05-06 19:45 40.78843 -3.37312 14537 ft 304 kts 56°
2026-05-06 19:46 40.80046 -3.34992 15162 ft 309 kts 56°
2026-05-06 19:46 40.81267 -3.32633 15777 ft 313 kts 56°
2026-05-06 19:46 40.82502 -3.30244 16389 ft 318 kts 56°
2026-05-06 19:46 40.83737 -3.27854 16991 ft 322 kts 56°
2026-05-06 19:47 40.84974 -3.25310 17609 ft 327 kts 63°
2026-05-06 19:47 40.85832 -3.22534 17996 ft 339 kts 75°
2026-05-06 19:47 40.86451 -3.19436 18147 ft 358 kts 76°
2026-05-06 19:47 40.87091 -3.16169 18286 ft 377 kts 76°
2026-05-06 19:48 40.87761 -3.12749 18514 ft 389 kts 76°
2026-05-06 19:48 40.88446 -3.09257 18971 ft 395 kts 76°
2026-05-06 19:48 40.89141 -3.05721 19486 ft 399 kts 76°
2026-05-06 19:48 40.89839 -3.02159 19998 ft 403 kts 76°
2026-05-06 19:49 40.90543 -2.98552 20525 ft 407 kts 76°
2026-05-06 19:49 40.91252 -2.94915 21049 ft 410 kts 76°
2026-05-06 19:49 40.91968 -2.91247 21576 ft 414 kts 75°
2026-05-06 19:49 40.92693 -2.87534 22096 ft 418 kts 75°
2026-05-06 19:50 40.93422 -2.83797 22606 ft 422 kts 75°
2026-05-06 19:50 40.94158 -2.80020 23110 ft 425 kts 75°
2026-05-06 19:50 40.94893 -2.76220 23580 ft 429 kts 76°
2026-05-06 19:50 40.95632 -2.72380 24008 ft 432 kts 76°
2026-05-06 19:51 40.96374 -2.68520 24420 ft 434 kts 76°
2026-05-06 19:51 40.97119 -2.64633 24813 ft 437 kts 76°
2026-05-06 19:51 40.97868 -2.60730 25205 ft 440 kts 76°
2026-05-06 19:51 40.98624 -2.56794 25590 ft 442 kts 76°
2026-05-06 19:52 40.99385 -2.52840 25980 ft 444 kts 76°
2026-05-06 19:52 41.00145 -2.48870 26355 ft 447 kts 76°
2026-05-06 19:52 41.00906 -2.44874 26722 ft 449 kts 76°
2026-05-06 19:52 41.01668 -2.40855 27092 ft 451 kts 76°
2026-05-06 19:53 41.02422 -2.36868 27443 ft 453 kts 76°
2026-05-06 19:53 41.03194 -2.32805 27801 ft 456 kts 76°
2026-05-06 19:53 41.03970 -2.28719 28152 ft 458 kts 76°
2026-05-06 19:53 41.04748 -2.24612 28479 ft 460 kts 76°
2026-05-06 19:54 41.05527 -2.20489 28819 ft 463 kts 76°
2026-05-06 19:54 41.06310 -2.16345 29147 ft 465 kts 76°
2026-05-06 19:54 41.07093 -2.12175 29469 ft 467 kts 76°
2026-05-06 19:54 41.07878 -2.07995 29771 ft 469 kts 76°
2026-05-06 19:55 41.08664 -2.03791 29945 ft 469 kts 76°
2026-05-06 19:55 41.09433 -1.99665 29973 ft 455 kts 76°
2026-05-06 19:55 41.10919 -1.91655 29973 ft 446 kts 76°
2026-05-06 19:56 41.12402 -1.83639 29971 ft 449 kts 77°
2026-05-06 19:56 41.13875 -1.75593 29975 ft 449 kts 77°
2026-05-06 19:57 41.15347 -1.67586 29976 ft 449 kts 77°
2026-05-06 19:57 41.16821 -1.59538 29975 ft 449 kts 77°
2026-05-06 19:58 41.18283 -1.51495 29969 ft 449 kts 77°
2026-05-06 19:58 41.19744 -1.43420 29968 ft 449 kts 77°
2026-05-06 19:59 41.21195 -1.35357 29969 ft 449 kts 77°
2026-05-06 19:59 41.22649 -1.27284 29971 ft 449 kts 77°
2026-05-06 20:00 41.24098 -1.19208 29968 ft 449 kts 77°
2026-05-06 20:00 41.25529 -1.11139 29962 ft 449 kts 77°
2026-05-06 20:01 41.26959 -1.03032 29948 ft 451 kts 77°
2026-05-06 20:01 41.28392 -0.94900 29949 ft 452 kts 77°
2026-05-06 20:02 41.29829 -0.86747 29946 ft 453 kts 77°
2026-05-06 20:02 41.31262 -0.78589 29950 ft 454 kts 77°
2026-05-06 20:03 41.32688 -0.70404 29939 ft 455 kts 78°
2026-05-06 20:03 41.34112 -0.62186 29937 ft 456 kts 78°
2026-05-06 20:04 41.35028 -0.53858 29951 ft 455 kts 92°
2026-05-06 20:04 41.34351 -0.45544 29928 ft 452 kts 101°
2026-05-06 20:05 41.33421 -0.37277 29937 ft 452 kts 101°
2026-05-06 20:05 41.32492 -0.28994 29935 ft 452 kts 101°
2026-05-06 20:06 41.31560 -0.20729 29934 ft 452 kts 101°
2026-05-06 20:06 41.30620 -0.12449 29936 ft 452 kts 101°
2026-05-06 20:07 41.29675 -0.04240 29939 ft 452 kts 101°
2026-05-06 20:07 41.28712 0.04031 29927 ft 453 kts 102°
2026-05-06 20:08 41.27728 0.12428 29787 ft 468 kts 102°
2026-05-06 20:08 41.27303 0.16702 28724 ft 466 kts 95°
2026-05-06 20:08 41.27385 0.20979 27727 ft 460 kts 83°
2026-05-06 20:09 41.27996 0.25069 27214 ft 443 kts 74°
2026-05-06 20:09 41.28844 0.28954 26828 ft 434 kts 73°
2026-05-06 20:09 41.29682 0.32809 26574 ft 432 kts 73°
2026-05-06 20:09 41.30513 0.36636 26347 ft 429 kts 73°
2026-05-06 20:10 41.31343 0.40446 26065 ft 429 kts 73°
2026-05-06 20:10 41.32177 0.44254 25718 ft 427 kts 73°
2026-05-06 20:10 41.33006 0.48049 25371 ft 425 kts 73°
2026-05-06 20:10 41.33826 0.51816 25029 ft 422 kts 73°
2026-05-06 20:11 41.34639 0.55561 24695 ft 419 kts 73°
2026-05-06 20:11 41.35429 0.59217 24375 ft 414 kts 73°
2026-05-06 20:11 41.36217 0.62881 24026 ft 408 kts 73°
2026-05-06 20:11 41.37006 0.66548 23685 ft 404 kts 73°
2026-05-06 20:12 41.37775 0.70118 23327 ft 401 kts 73°
2026-05-06 20:12 41.38528 0.73617 23004 ft 398 kts 73°
2026-05-06 20:12 41.39301 0.77205 22682 ft 395 kts 73°
2026-05-06 20:12 41.40048 0.80672 22361 ft 395 kts 73°
2026-05-06 20:13 41.40800 0.84179 22044 ft 392 kts 73°
2026-05-06 20:13 41.41543 0.87664 21726 ft 389 kts 73°
2026-05-06 20:13 41.42276 0.91126 21411 ft 386 kts 73°
2026-05-06 20:13 41.43001 0.94545 21112 ft 383 kts 73°
2026-05-06 20:14 41.43494 0.96865 20894 ft 381 kts 73°
2026-05-06 20:14 41.44212 1.00253 20586 ft 379 kts 73°
2026-05-06 20:14 41.44928 1.03616 20265 ft 376 kts 73°
2026-05-06 20:14 41.45629 1.06909 19981 ft 373 kts 73°
2026-05-06 20:15 41.46342 1.10265 19603 ft 371 kts 73°
2026-05-06 20:15 41.47037 1.13557 19220 ft 367 kts 73°
2026-05-06 20:15 41.47725 1.16828 18843 ft 365 kts 73°
2026-05-06 20:15 41.48398 1.20034 18469 ft 362 kts 74°
2026-05-06 20:16 41.49073 1.23255 18081 ft 359 kts 74°
2026-05-06 20:16 41.49749 1.26488 17695 ft 356 kts 74°
2026-05-06 20:16 41.50411 1.29657 17333 ft 354 kts 74°
2026-05-06 20:16 41.51069 1.32808 16967 ft 352 kts 74°
2026-05-06 20:17 41.51724 1.35945 16609 ft 350 kts 74°
2026-05-06 20:17 41.52366 1.39021 16249 ft 349 kts 74°
2026-05-06 20:17 41.53024 1.42178 15888 ft 347 kts 74°
2026-05-06 20:17 41.53660 1.45234 15536 ft 345 kts 74°
2026-05-06 20:18 41.54298 1.48319 15180 ft 344 kts 75°
2026-05-06 20:18 41.54686 1.51460 14808 ft 343 kts 86°
2026-05-06 20:18 41.54730 1.54684 14339 ft 344 kts 89°
2026-05-06 20:18 41.54750 1.57840 13890 ft 345 kts 89°
2026-05-06 20:19 41.54772 1.61029 13443 ft 344 kts 89°
2026-05-06 20:19 41.54792 1.64202 13093 ft 339 kts 89°
2026-05-06 20:19 41.54812 1.67361 12617 ft 339 kts 89°
2026-05-06 20:19 41.54832 1.70491 12155 ft 338 kts 89°
2026-05-06 20:20 41.54850 1.73614 11841 ft 333 kts 89°
2026-05-06 20:20 41.54868 1.76671 11240 ft 328 kts 89°
2026-05-06 20:20 41.54884 1.79671 10780 ft 323 kts 89°
2026-05-06 20:20 41.54899 1.82659 10354 ft 321 kts 89°
2026-05-06 20:21 41.54912 1.85610 10007 ft 313 kts 89°
2026-05-06 20:21 41.54920 1.88468 9831 ft 304 kts 91°
2026-05-06 20:21 41.54649 1.91235 9582 ft 300 kts 101°
2026-05-06 20:21 41.54276 1.93946 9151 ft 300 kts 100°
2026-05-06 20:22 41.53905 1.96685 8743 ft 298 kts 100°
2026-05-06 20:22 41.53540 1.99402 8318 ft 298 kts 100°
2026-05-06 20:22 41.53178 2.02099 7990 ft 293 kts 100°
2026-05-06 20:22 41.52820 2.04757 7416 ft 290 kts 100°
2026-05-06 20:23 41.52466 2.07378 6899 ft 284 kts 100°
2026-05-06 20:23 41.52011 2.09928 6453 ft 281 kts 110°
2026-05-06 20:23 41.51123 2.12227 6028 ft 279 kts 126°
2026-05-06 20:23 41.49896 2.14222 5556 ft 277 kts 131°
2026-05-06 20:24 41.48643 2.16164 5092 ft 275 kts 131°
2026-05-06 20:24 41.47400 2.18095 4635 ft 275 kts 131°
2026-05-06 20:24 41.46160 2.20025 4211 ft 274 kts 131°
2026-05-06 20:24 41.44965 2.21886 4101 ft 261 kts 131°
2026-05-06 20:25 41.43817 2.23673 3991 ft 247 kts 131°
2026-05-06 20:25 41.42660 2.25322 3874 ft 234 kts 142°
2026-05-06 20:25 41.41325 2.26387 3775 ft 225 kts 160°
2026-05-06 20:25 41.39823 2.26858 3678 ft 219 kts 178°
2026-05-06 20:26 41.38353 2.26723 3589 ft 207 kts 194°
2026-05-06 20:26 41.36993 2.26064 3137 ft 210 kts 211°
2026-05-06 20:26 41.35892 2.24942 3045 ft 190 kts 226°
2026-05-06 20:26 41.35140 2.23654 3034 ft 163 kts 239°
2026-05-06 20:27 41.34667 2.22385 3031 ft 147 kts 245°
2026-05-06 20:27 41.34251 2.21150 2754 ft 145 kts 245°
2026-05-06 20:27 41.33854 2.19918 2398 ft 144 kts 245°
2026-05-06 20:27 41.33455 2.18699 2048 ft 143 kts 243°
2026-05-06 20:28 41.33001 2.17502 1638 ft 147 kts 242°
2026-05-06 20:28 41.32572 2.16269 1288 ft 144 kts 245°
2026-05-06 20:28 41.32179 2.15072 998 ft 139 kts 245°
2026-05-06 20:28 41.31788 2.13903 690 ft 138 kts 245°
2026-05-06 20:29 41.31368 2.12751 435 ft 139 kts 244°
2026-05-06 20:29 41.30977 2.11566 238 ft 140 kts 245°
2026-05-06 20:29 41.30574 2.10381 83 ft 141 kts 246°
2026-05-06 20:29 41.30192 2.09255 17 ft 114 kts 245°
2026-05-06 20:30 41.29933 2.08508 21 ft 64 kts 245°
2026-05-06 20:30 41.29589 2.07831 22 ft 23 kts 213°
2026-05-06 20:30 41.29577 2.07820 21 ft 0 kts 214°
2026-05-06 20:32 41.29567 2.07811 21 ft 8 kts 215°
2026-05-06 20:32 41.29494 2.07802 21 ft 13 kts 156°
2026-05-06 20:32 41.29392 2.07863 21 ft 19 kts 155°
2026-05-06 20:33 41.29283 2.07928 21 ft 15 kts 156°
2026-05-06 20:33 41.29217 2.07882 23 ft 10 kts 246°
2026-05-06 20:33 41.29181 2.07807 21 ft 9 kts 197°
2026-05-06 20:33 41.29127 2.07838 23 ft 8 kts 150°
2026-05-06 20:34 41.29109 2.07850 21 ft 0 kts 155°